モス彗星

281P/MOSS (2001)

English version
Home page
Updated on April 6, 2013

---------------------------------------------------------------------

・ プロフィール

・ 軌道要素

Epoch 2001 July 30.0 TT = JDT 2452120.5
T 2001 Aug. 15.77954 TT                                 MPC
q   4.0451813            (2000.0)            P               Q
n   0.09073655     Peri.   26.34843     -0.39990972     -0.91286014
a   4.9047237      Node    87.31816     +0.82572451     -0.39775672
e   0.1752479      Incl.    4.72082     +0.39780806     -0.09206493
P  10.9
From 91 observations 2000 Nov. 17-2013 Mar. 15, mean residual 0".6.

・ 光度変化

        m1 = 11.0 + 5 logΔ + 10.0 log r

---------------------------------------------------------------------

軌道要素はM.P.E.C. 2013-F20に掲載されたものです。
光度グラフはComet for Windowsで作成したものです。

---------------------------------------------------------------------

Copyright(C) Seiichi Yoshida (comet@aerith.net). All rights reserved.